Location: Unspecified
(50.7693°N, 0.0000°E)
Time: 06:34:27
(UTC+00:00)

Transit 2A - Pass Details

Date: 14 August 2020
Orbit: 591 x 967 km, 66.7° (Epoch: 20 September)

Event Time Altitude Azimuth Distance (km) Brightness Sun altitude
Rises 20:11:27 0° 232° (SW) 3,441 9.6 -7.8°
Reaches altitude 10° 20:13:54 10° 236° (WSW) 2,555 9.0 -8.1°
Maximum altitude 20:19:49 57° 315° (NW) 1,097 7.2 -8.9°
Drops below altitude 10° 20:26:07 10° 34° (NE) 2,711 8.9 -9.7°
Sets 20:28:48 0° 38° (NE) 3,667 9.5 -10.0°
